User: anonymous   Login
Location: Daybis Observatory
(33.4273°N, 88.8061°W)
Time: 14:47:23
(UTC-05:00)
Language:

Coronas F rocket - Orbit

View from above orbital plane
View from above orbital plane
View from above satellite
View from above satellite

Ground track
Ground track

The orbit data is extracted from the following two-line orbital elements,

1 26874U 01032B   15242.88838235  .00011349  00000-0  10391-3 0  9997
2 26874 082.4626 237.4969 0009343 211.3218 148.7487 15.67540115789822
Epoch (UTC): 30 August 2015 21:19:16
Eccentricity: 0.0009343
inclination: 82.4626°
perigee height: 359 km
apogee height: 372 km
right ascension of ascending node: 237.4969°
argument of perigee: 211.3218°
revolutions per day: 15.67540115
mean anomaly at epoch: 148.7487°
orbit number at epoch: 78982

The dashed part of the orbit path shows where the satellite is in the earth's shadow,  

DLR